Retour au catalogue

STARLINK-32041

ActifCommunicationsVLEO
NORAD 60202·PAYLOAD·🇺🇸 United States

Lancé Jul 3, 2024 depuis Cape Canaveral Space Force Station

Loading…

Prochains Passages (prochaines 24 heures)

TLE

FraisSource: CelesTrak SupGP

Époque: Sep 15, 2026, 02:07 UTC

1 60202C 24124V   26258.08868056 -.00035695  00000+0 -11478-2 0  2587
2 60202  53.1569 161.4212 0001308  89.1200 225.4952 15.31720316    19

Suivez STARLINK-32041 en temps réel avec AllMySat

Download on the App Store